| time (UTC) | temp F | wind direction | speed knots | gust knots | rain 1hr in | rain 24hr in | rain mn in | humidity % | barometer mb |
| 20260904144545 | 74 | 164 | 0.0 | 0.9 | 0.00 | 0.00 | 0.00 | 39 | 1005.6 |
| 20260904143038 | 71 | 164 | 0.0 | 2.6 | 0.00 | 0.00 | 0.00 | 42 | 1005.5 |
| 20260904141541 | 70 | 164 | 1.7 | 5.2 | 0.00 | 0.00 | 0.00 | 44 | 1005.4 |
| 20260904140037 | 67 | 154 | 1.7 | 5.2 | 0.00 | 0.00 | 0.00 | 48 | 1005.3 |
| 20260904134536 | 65 | 157 | 0.0 | 0.9 | 0.00 | 0.00 | 0.00 | 52 | 1005.1 |
| 20260904133033 | 64 | 157 | 0.0 | 1.7 | 0.00 | 0.00 | 0.00 | 53 | 1004.9 |
| 20260904131539 | 62 | 157 | 0.0 | 2.6 | 0.00 | 0.00 | 0.00 | 55 | 1004.6 |
| 20260904130037 | 60 | 157 | 2.6 | 5.2 | 0.00 | 0.00 | 0.00 | 61 | 1004.4 |
| 20260904124530 | 60 | 241 | 1.7 | 6.1 | 0.00 | 0.00 | 0.00 | 65 | 1004.4 |
| 20260904123029 | 60 | 177 | 0.0 | 2.6 | 0.00 | 0.00 | 0.00 | 67 | 1004.3 |
| 20260904121526 | 60 | 176 | 0.0 | 3.5 | 0.00 | 0.00 | 0.00 | 62 | 1003.9 |
| 20260904120024 | 60 | 139 | 0.0 | 3.5 | 0.00 | 0.00 | 0.00 | 63 | 1003.8 |
| 20260904114523 | 60 | 140 | 0.0 | 0.0 | 0.00 | 0.00 | 0.00 | 65 | 1003.7 |
| 20260904113025 | 60 | 140 | 0.0 | 0.9 | 0.00 | 0.00 | 0.00 | 64 | 1003.4 |
| 20260904111519 | 61 | 140 | 0.0 | 0.9 | 0.00 | 0.00 | 0.00 | 67 | 1003.3 |
| 20260904110017 | 61 | 140 | 0.0 | 0.9 | 0.00 | 0.00 | 0.00 | 67 | 1003.1 |
| 20260904104515 | 61 | 140 | 0.0 | 1.7 | 0.00 | 0.00 | 0.00 | 63 | 1002.9 |
| 20260904103012 | 62 | 140 | 0.0 | 0.9 | 0.00 | 0.00 | 0.00 | 64 | 1002.9 |
| 20260904101610 | 62 | 140 | 0.0 | 0.0 | 0.00 | 0.00 | 0.00 | 61 | 1002.7 |
| 20260904100008 | 62 | 140 | 0.0 | 0.0 | 0.00 | 0.00 | 0.00 | 58 | 1002.6 |
| 20260904094505 | 63 | 140 | 0.0 | 1.7 | 0.00 | 0.00 | 0.00 | 59 | 1002.6 |
| 20260904093003 | 63 | 140 | 0.0 | 1.7 | 0.00 | 0.00 | 0.00 | 57 | 1002.4 |
| 20260904091501 | 64 | 140 | 0.0 | 1.7 | 0.00 | 0.00 | 0.00 | 58 | 1002.3 |
| 20260904090057 | 65 | 140 | 0.0 | 1.7 | 0.00 | 0.00 | 0.00 | 55 | 1002.2 |
| 20260904084556 | 66 | 140 | 0.0 | 1.7 | 0.00 | 0.00 | 0.00 | 52 | 1002.2 |
| 20260904083108 | 67 | 138 | 0.0 | 0.9 | 0.00 | 0.00 | 0.00 | 47 | 1002.0 |
| 20260904081553 | 67 | 137 | 0.0 | 3.5 | 0.00 | 0.00 | 0.00 | 46 | 1002.1 |
| 20260904080053 | 66 | 138 | 0.9 | 2.6 | 0.00 | 0.00 | 0.00 | 45 | 1002.1 |
| 20260904074604 | 66 | 138 | 1.7 | 3.5 | 0.00 | 0.00 | 0.00 | 50 | 1002.1 |
| 20260904073051 | 67 | 138 | 0.0 | 3.5 | 0.00 | 0.00 | 0.00 | 52 | 1002.2 |
| 20260904071545 | 68 | 53 | 0.0 | 0.0 | 0.00 | 0.00 | 0.00 | 51 | 1002.1 |
| 20260904070044 | 69 | 53 | 0.0 | 1.7 | 0.00 | 0.00 | 0.00 | 43 | 1002.0 |
| 20260904064541 | 69 | 53 | 0.0 | 1.7 | 0.00 | 0.00 | 0.00 | 43 | 1001.8 |
| 20260904063045 | 68 | 53 | 0.0 | 1.7 | 0.00 | 0.00 | 0.00 | 43 | 1001.7 |
| 20260904061540 | 69 | 53 | 0.0 | 0.0 | 0.00 | 0.00 | 0.00 | 44 | 1001.6 |
| 20260904060032 | 70 | 53 | 0.0 | 3.5 | 0.00 | 0.00 | 0.00 | 41 | 1001.5 |
| 20260904054535 | 69 | 40 | 1.7 | 3.5 | 0.00 | 0.00 | 0.00 | 42 | 1001.4 |
| 20260904053036 | 69 | 40 | 0.0 | 3.5 | 0.00 | 0.00 | 0.00 | 42 | 1001.4 |
| 20260904051532 | 70 | 152 | 0.0 | 1.7 | 0.00 | 0.00 | 0.00 | 40 | 1001.2 |
| 20260904050031 | 71 | 152 | 0.0 | 0.9 | 0.00 | 0.00 | 0.00 | 40 | 1001.2 |
| 20260904044530 | 71 | 152 | 0.0 | 1.7 | 0.00 | 0.00 | 0.00 | 41 | 1001.3 |
| 20260904043028 | 73 | 152 | 0.9 | 2.6 | 0.00 | 0.00 | 0.00 | 40 | 1001.4 |
| 20260904041534 | 75 | 152 | 0.9 | 2.6 | 0.00 | 0.00 | 0.00 | 36 | 1001.3 |
| 20260904040028 | 79 | 153 | 0.0 | 1.7 | 0.00 | 0.00 | 0.00 | 32 | 1001.2 |
| 20260904034527 | 80 | 153 | 0.0 | 0.9 | 0.00 | 0.00 | 0.00 | 26 | 1001.2 |
| 20260904033026 | 81 | 153 | 0.0 | 0.0 | 0.00 | 0.00 | 0.00 | 25 | 1001.2 |
| 20260904031526 | 82 | 153 | 0.0 | 0.9 | 0.00 | 0.00 | 0.00 | 24 | 1001.1 |
| 20260904030026 | 83 | 175 | 1.7 | 4.3 | 0.00 | 0.00 | 0.00 | 23 | 1001.0 |
| 20260904024526 | 84 | 231 | 4.3 | 7.8 | 0.00 | 0.00 | 0.00 | 22 | 1000.9 |
| 20260904023023 | 84 | 150 | 5.2 | 11.3 | 0.00 | 0.00 | 0.00 | 21 | 1000.8 |
| 20260904021533 | 84 | 184 | 7.8 | 11.3 | 0.00 | 0.00 | 0.00 | 21 | 1000.9 |
| 20260904020014 | 85 | 199 | 7.0 | 11.3 | 0.00 | 0.00 | 0.00 | 20 | 1001.0 |
| 20260904014513 | 85 | 184 | 5.2 | 11.3 | 0.00 | 0.00 | 0.00 | 19 | 1001.1 |
| 20260904013011 | 86 | 198 | 7.8 | 13.0 | 0.00 | 0.00 | 0.00 | 18 | 1001.2 |
| 20260904011510 | 86 | 157 | 6.1 | 9.6 | 0.00 | 0.00 | 0.00 | 18 | 1001.2 |
| 20260904010013 | 87 | 188 | 5.2 | 15.6 | 0.00 | 0.00 | 0.00 | 18 | 1001.4 |
| 20260904004503 | 88 | 171 | 5.2 | 13.9 | 0.00 | 0.00 | 0.00 | 17 | 1001.5 |
| 20260904003012 | 88 | 173 | 9.6 | 15.6 | 0.00 | 0.00 | 0.00 | 17 | 1001.5 |
| 20260904001549 | 88 | 211 | 4.3 | 12.2 | 0.00 | 0.00 | 0.00 | 18 | 1001.5 |
| 20260904000045 | 89 | 200 | 4.3 | 15.6 | 0.00 | 0.00 | 0.00 | 16 | 1001.6 |
| 20260903234543 | 89 | 198 | 5.2 | 10.4 | 0.00 | 0.00 | 0.00 | 16 | 1001.6 |
| 20260903233054 | 89 | 188 | 7.8 | 11.3 | 0.00 | 0.00 | 0.00 | 16 | 1001.8 |
| 20260903231541 | 90 | 236 | 7.8 | 15.6 | 0.00 | 0.00 | 0.00 | 16 | 1002.0 |
| 20260903230048 | 90 | 232 | 7.8 | 17.4 | 0.00 | 0.00 | 0.00 | 15 | 1002.1 |
| 20260903224538 | 90 | 162 | 7.8 | 18.2 | 0.00 | 0.00 | 0.00 | 15 | 1002.2 |
| 20260903223039 | 90 | 213 | 2.6 | 17.4 | 0.00 | 0.00 | 0.00 | 15 | 1002.4 |
| 20260903221535 | 90 | 169 | 6.1 | 17.4 | 0.00 | 0.00 | 0.00 | 14 | 1002.6 |
| 20260903220042 | 90 | 265 | 5.2 | 8.7 | 0.00 | 0.00 | 0.00 | 14 | 1002.7 |
| 20260903214537 | 90 | 192 | 3.5 | 14.8 | 0.00 | 0.00 | 0.00 | 15 | 1002.8 |
| 20260903213032 | 89 | 178 | 6.1 | 19.1 | 0.00 | 0.00 | 0.00 | 16 | 1003.2 |
| 20260903211529 | 89 | 193 | 7.8 | 17.4 | 0.00 | 0.00 | 0.00 | 17 | 1003.3 |
| 20260903210029 | 89 | 168 | 2.6 | 18.2 | 0.00 | 0.00 | 0.00 | 17 | 1003.4 |
| 20260903204531 | 88 | 196 | 7.0 | 17.4 | 0.00 | 0.00 | 0.00 | 17 | 1003.8 |
| 20260903203027 | 89 | 157 | 5.2 | 10.4 | 0.00 | 0.00 | 0.00 | 17 | 1003.9 |
| 20260903201526 | 89 | 196 | 7.0 | 11.3 | 0.00 | 0.00 | 0.00 | 17 | 1004.1 |
| 20260903200025 | 88 | 190 | 7.0 | 17.4 | 0.00 | 0.00 | 0.00 | 16 | 1004.5 |
| 20260903194525 | 89 | 192 | 3.5 | 13.0 | 0.00 | 0.00 | 0.00 | 12 | 1004.6 |
| 20260903193022 | 88 | 182 | 4.3 | 13.9 | 0.00 | 0.00 | 0.00 | 12 | 1005.0 |
| 20260903190025 | 87 | 163 | 8.7 | 14.8 | 0.00 | 0.00 | 0.00 | 12 | 1005.5 |
| 20260903184518 | 86 | 175 | 5.2 | 9.6 | 0.00 | 0.00 | 0.00 | 13 | 1005.8 |
| 20260903183032 | 86 | 217 | 9.6 | 14.8 | 0.00 | 0.00 | 0.00 | 12 | 1006.0 |
| 20260903181529 | 86 | 201 | 4.3 | 7.8 | 0.00 | 0.00 | 0.00 | 12 | 1006.2 |
| 20260903180100 | 85 | 204 | 4.3 | 8.7 | 0.00 | 0.00 | 0.00 | 13 | 1006.6 |
| 20260903174641 | 85 | 227 | 3.5 | 8.7 | 0.00 | 0.00 | 0.00 | 13 | 1006.8 |
| 20260903173101 | 84 | 141 | 3.5 | 7.0 | 0.00 | 0.00 | 0.00 | 14 | 1006.7 |
| 20260903171557 | 82 | 252 | 4.3 | 7.8 | 0.00 | 0.00 | 0.00 | 15 | 1006.8 |
| 20260903170056 | 82 | 178 | 6.1 | 15.6 | 0.00 | 0.00 | 0.00 | 15 | 1007.0 |
| 20260903164553 | 81 | 146 | 5.2 | 9.6 | 0.00 | 0.00 | 0.00 | 17 | 1006.9 |
| 20260903163048 | 80 | 153 | 2.6 | 9.6 | 0.00 | 0.00 | 0.00 | 18 | 1006.9 |
| 20260903161545 | 78 | 165 | 0.9 | 6.1 | 0.00 | 0.00 | 0.00 | 20 | 1006.9 |
| 20260903160044 | 76 | 216 | 1.7 | 6.1 | 0.00 | 0.00 | 0.00 | 23 | 1006.9 |
| 20260903154536 | 73 | 89 | 0.0 | 2.6 | 0.00 | 0.00 | 0.00 | 31 | 1006.8 |
| 20260903153035 | 71 | 70 | 0.9 | 2.6 | 0.00 | 0.00 | 0.00 | 31 | 1006.9 |
| 20260903151535 | 67 | 70 | 0.0 | 0.9 | 0.00 | 0.00 | 0.00 | 43 | 1007.0 |
| 20260903150058 | 65 | 70 | 0.0 | 0.9 | 0.00 | 0.00 | 0.00 | 57 | 1007.0 |